Orbital Elements
Epoch 2024 Oct. 17.0 TT = JDT 2460600.5
T 2024 Oct. 3.76487 TT Rudenko
q 1.8516825 (2000.0) P Q
n 0.13865590 Peri. 354.28355 +0.99776298 +0.06502414
a 3.6969519 Node 2.17756 -0.03248185 +0.67447502
e 0.4991327 Incl. 24.10959 -0.05842917 +0.73542865
P 7.11
From 156 observations 2010 Aug. 6-2024 Oct. 7, mean residual 0".6.
|